Regional Weather Roundup
Issued by NWS Albany, NY

Home | Current Version | Previous Version | Text Only | Print | Product List | Glossary On
Versions: 1 2 3 4 5 6 7 8 9 10 11 12 13 14 15 16 17 18 19 20 21 22 23 24 25 26 27 28 29 30 31 32 33 34 35 36 37 38 39 40 41 42 43 44 45 46 47 48 49 50
883
ASUS41 KALY 102210
RWRALY

NEW YORK STATE HOURLY WEATHER ROUNDUP
NATIONAL WEATHER SERVICE ALBANY NY
500 PM EST SUN DEC 10 2017

NOTE: "FAIR" INDICATES FEW OR NO CLOUDS BELOW 12,000 FEET WITH NO
SIGNIFICANT WEATHER AND/OR NO OBSTRUCTIONS TO VISIBILITY.

NYZ032-033-038>043-046>054-057>066-NYZ062>081-082-084-102300-
EAST


CITY           SKY/WX    TMP DP  RH WIND       PRES   REMARKS
ALBANY         MOCLDY    33  19  56 W6        29.88R WCI  28
GLENS FALLS    MOCLDY    31  15  52 W3        29.84R
POUGHKEEPSIE   CLOUDY    35  21  56 W8        29.91R WCI  29
NEWBURGH       MOCLDY    36  23  60 W12       29.91R WCI  27
MONTGOMERY     CLOUDY    35  22  58 W8        29.90R WCI  29
WHITE PLAINS   MOCLDY    35  21  56 W5        29.92R WCI  31
ISLIP          PTCLDY    35  25  66 SW8       29.95R WCI  29
NEW YORK CITY  MOCLDY    39  22  50 W9G31     29.96R WCI  33
CENTRAL PARK   PTCLDY    37  21  52 W12G20    29.98R WCI  29
$$

NYZ005>009-017-018-044>046-055-056-102300-
CENTRAL


CITY           SKY/WX    TMP DP  RH WIND       PRES   REMARKS
FULTON         LGT SNOW  29  22  75 SW8       29.85R WCI  21
SYRACUSE       LGT SNOW  28  24  85 SW12      29.86R FOG     WCI  18
ROME           CLOUDY    29  19  66 W8        29.86R WCI  21
ELMIRA         CLOUDY    33  16  49 W16       29.86R WCI  23
BINGHAMTON     CLOUDY    27  20  75 SW13G21   29.81R WCI  16
$$

NYZ026>034-041>043-087-102300-
NORTH


CITY           SKY/WX    TMP DP  RH WIND       PRES   REMARKS
WATERTOWN      CLOUDY    31  24  75 W18G29    29.79S WCI  19
FORT DRUM      NOT AVBL
OGDENSBURG     FAIR      29  21  71 SW8       29.77S WCI  21
MASSENA        CLOUDY    28  20  71 SW12      29.78F WCI  18
SARANAC LAKE   CLOUDY    21  18  88 SW8       29.71R WCI  11
PLATTSBURGH    CLOUDY    30  16  56 CALM      29.80R
$$

NYZ001>004-010>016-019>021-085-102300-
WEST


CITY           SKY/WX    TMP DP  RH WIND       PRES   REMARKS
NIAGARA FALLS  FLURRIES  31  17  56 W17       29.84R WCI  19
BUFFALO        LGT SNOW  29  21  72 W18G25    29.84R WCI  16
DUNKIRK        FLURRIES  29  21  72 SW15      29.88R WCI  18
JAMESTOWN      FLURRIES  25  18  74 SW17G24   29.84R WCI  12
WELLSVILLE     FLURRIES  27  16  63 SW10G24   29.82R WCI  17
ROCHESTER      LGT SNOW  28  27  96 SW8       29.85R FOG     WCI  20
PENN YAN       CLOUDY    31  18  58 SW17G23   29.83S WCI  19
$$

             KEY
       WCI = WIND CHILL INDEX
       VSB = VISIBILITY
       HX  = HEAT INDEX
$$




USA.gov is the U.S. government's official web portal to all federal, state and local government web resources and services.